This demonstration page uses our WeatherBlox Daily Observations layout. Learn more.

Left ArrowRight Arrow

40.97296, -117.73568

Hourly Observations for February 1, 2019

Temp ( °F °C ) Dew Point ( °F °C ) Humidity (%) Winds ( mph kmh ) Pressure ( in mb ) Visibility ( mi km ) Precip ( " mm )
12:56 am 00:56 Clear 36 2.2 30 -1.1 79 79 ENE 6 9 29.89 1012 10 16 N/A
1:56 am 01:56 Clear 37 2.8 31 -0.6 79 79 E 7 11 29.88 1012 10 16 N/A
2:56 am 02:56 Clear 34 1.1 29 -1.7 82 82 ENE 7 11 29.88 1012 10 16 N/A
3:56 am 03:56 Clear 30 -1.1 27 -2.8 88 88 ENE 7 11 29.89 1012 10 16 N/A
4:56 am 04:56 Clear 30 -1.1 27 -2.8 88 88 ENE 7 11 29.90 1012 10 16 N/A
5:56 am 05:56 Clear 33 0.6 29 -1.7 85 85 ENE 6 9 29.89 1012 10 16 N/A
8:56 am 08:56 Sunny 42 5.6 32 0 68 68 NE 7 11 29.92 1013 10 16 N/A
9:56 am 09:56 Sunny 45 7.2 33 0.6 63 63 NE 8 13 29.90 1012 10 16 N/A
10:56 am 10:56 Sunny 49 9.4 33 0.6 55 55 ENE 5 7 29.87 1012 10 16 N/A
11:56 am 11:56 Sunny 53 11.7 34 1.1 48 48 NE 3 6 29.83 1010 10 16 N/A
12:56 pm 12:56 Sunny 57 13.9 33 0.6 41 41 VRB 3 6 29.78 1009 10 16 N/A
1:56 pm 13:56 Sunny 55 12.8 33 0.6 44 44 NNE 10 17 29.76 1008 10 16 N/A
2:56 pm 14:56 Sunny 55 12.8 31 -0.6 40 40 VRB 6 9 29.74 1007 10 16 N/A
3:56 pm 15:56 Sunny 54 12.2 31 -0.6 42 42 SSE 6 9 29.74 1007 10 16 N/A
4:56 pm 16:56 Sunny 51 10.6 32 0 48 48 NW 5 7 29.74 1007 10 16 N/A
5:56 pm 17:56 Clear 49 9.4 33 0.6 55 55 NNE 3 6 29.74 1007 10 16 N/A
6:56 pm 18:56 Cloudy 48 8.9 33 0.6 56 56 NE 10 17 29.73 1007 10 16 N/A
7:56 pm 19:56 Mostly Cloudy 49 9.4 32 0 52 52 NE 10 17 29.71 1006 10 16 N/A
8:56 pm 20:56 Cloudy 46 7.8 33 0.6 61 61 NE 7 11 29.68 1005 10 16 N/A
9:56 pm 21:56 Cloudy 45 7.2 33 0.6 63 63 E 8 13 29.67 1005 10 16 N/A
10:56 pm 22:56 Cloudy 43 6.1 33 0.6 68 68 Calm 29.69 1005 10 16 N/A
11:56 pm 23:56 Cloudy 43 6.1 34 1.1 71 71 ENE 6 9 29.67 1005 10 16 N/A

Powered by Vaisala Xweather